Weather History for LKTB - March, 2013

Change the Weather History Date:

Thursday, March 28, 2013

  Actual Average Record
Temperature  
Mean Temperature 32 °F -  
Max Temperature 36 °F 57 °F - ()
Min Temperature 27 °F 39 °F - ()
Degree Days  
Heating Degree Days 34    
Moisture  
Dew Point 24 °F    
Average Humidity 72    
Maximum Humidity 86    
Minimum Humidity 42    
Precipitation  
Precipitation 0.00 in 0.04 in - ()
Sea Level Pressure  
Sea Level Pressure 29.90 in    
Wind  
Wind Speed 11 mph ()    
Max Wind Speed 18 mph    
Max Gust Speed -    
Visibility 5.7 miles    
Events      
T = Trace of Precipitation, MM = Missing Value Source: Averaged Metar Reports

Daily Weather History Graph

Daily Weather History Graph

Search for Another Location

Airport or City:

Trip Planner

Search our weather history database for the weather conditions in past years. The results will help you decide how hot, cold, wet, or windy it might be!

Date:

Astronomy

Mar. 28, 2013 Rise Set
Actual Time 5:39 AM CET 6:18 PM CET
Civil Twilight 5:07 AM CET 6:50 PM CET
Nautical Twilight 4:29 AM CET 7:28 PM CET
Astronomical Twilight 3:49 AM CET 8:08 PM CET
Moon 8:01 PM CET (3/28) 5:47 AM CET (3/28)
Length of Visible Light 13h 43m
Length of Day
12h 39m
Full, 99% of the Moon is Illuminated
Mar 28
Full
Apr 3
Last Quarter
Apr 10
New
Apr 18
First Quarter
Apr 25
Full

Hourly Weather History & Observations

Time (CET) Temp. Windchill Dew Point Humidity Pressure Visibility Wind Dir Wind Speed Gust Speed Precip Events Conditions
12:00 AM 30.2 °F 21.3 °F 24.8 °F 80% 29.89 in 6.2 mi ENE 10.4 mph - N/A   Overcast
12:30 AM 30.2 °F 21.3 °F 24.8 °F 80% 29.89 in 6.2 mi ENE 10.4 mph - N/A   Overcast
1:00 AM 29 °F - 23 °F 69% 29.96 in 6 mi ENE 8.9 mph - -   Partly Cloudy
1:00 AM 28.4 °F 19.1 °F 24.8 °F 86% 29.89 in 6.2 mi ENE 10.4 mph - N/A   Overcast
1:30 AM 28.4 °F 19.7 °F 24.8 °F 86% 29.89 in 5.0 mi ENE 9.2 mph - N/A   Overcast
2:00 AM 28.4 °F 18.5 °F 24.8 °F 86% 29.89 in 5.0 mi ENE 11.5 mph - N/A   Overcast
2:30 AM 28.4 °F 18.5 °F 24.8 °F 86% 29.89 in 5.0 mi ENE 11.5 mph - N/A   Overcast
3:00 AM 28.4 °F 19.1 °F 24.8 °F 86% 29.89 in 5.0 mi East 10.4 mph - N/A   Overcast
3:30 AM 28.4 °F 18.5 °F 24.8 °F 86% 29.89 in 5.0 mi ENE 11.5 mph - N/A   Overcast
4:00 AM 28.4 °F 18.5 °F 24.8 °F 86% 29.89 in 4.3 mi ENE 11.5 mph - N/A   Overcast
4:30 AM 28.4 °F 19.1 °F 24.8 °F 86% 29.89 in 4.3 mi ENE 10.4 mph - N/A   Overcast
5:00 AM 28.4 °F 19.7 °F 24.8 °F 86% 29.89 in 4.3 mi East 9.2 mph - N/A   Overcast
5:30 AM 28.4 °F 20.4 °F 24.8 °F 86% 29.89 in 3.1 mi East 8.1 mph - N/A   Overcast
6:00 AM 28.4 °F 20.4 °F 24.8 °F 86% 29.89 in 2.5 mi ENE 8.1 mph - N/A   Overcast
6:30 AM 28.4 °F 20.4 °F 24.8 °F 86% 29.89 in 2.5 mi ENE 8.1 mph - N/A   Overcast
7:00 AM 29 °F - 25 °F 77% 29.97 in 3 mi East 6.7 mph - -   Mist
7:00 AM 28.4 °F 21.2 °F 24.8 °F 86% 29.92 in 2.8 mi ENE 6.9 mph - N/A   Overcast
7:30 AM 30.2 °F 22.6 °F 26.6 °F 86% 29.92 in 3.1 mi East 8.1 mph - N/A   Overcast
8:00 AM 30.2 °F 21.3 °F 26.6 °F 86% 29.92 in 4.3 mi ESE 10.4 mph - N/A   Overcast
8:30 AM 32.0 °F 23.0 °F 26.6 °F 80% 29.92 in 5.6 mi ESE 11.5 mph - N/A   Overcast
9:00 AM 33.8 °F 24.3 °F 24.8 °F 70% 29.89 in 6.2 mi ESE 13.8 mph - N/A   Mostly Cloudy
9:30 AM 33.8 °F 24.3 °F 23.0 °F 65% 29.89 in 6.2 mi SE 13.8 mph - N/A   Mostly Cloudy
10:00 AM 35.6 °F 26.2 °F 23.0 °F 60% 29.92 in 6.2 mi SSE 15.0 mph - N/A   Mostly Cloudy
10:30 AM 33.8 °F 23.5 °F 23.0 °F 65% 29.92 in 6.2 mi SSE 16.1 mph - N/A   Overcast
11:00 AM 33.8 °F 23.9 °F 21.2 °F 60% 29.92 in 6.2 mi SSE 15.0 mph - N/A   Mostly Cloudy
11:30 AM 33.8 °F 23.9 °F 21.2 °F 60% 29.92 in 6.2 mi SE 15.0 mph - N/A   Overcast
12:00 PM 35.6 °F 26.2 °F 21.2 °F 56% 29.92 in 6.2 mi SE 15.0 mph - N/A   Overcast
12:30 PM 35.6 °F 26.6 °F 21.2 °F 56% 29.92 in 6.2 mi SE 13.8 mph - N/A   Overcast
1:00 PM 36 °F - 21 °F 42% 29.97 in 16 mi SE 15.7 mph - -   Overcast
1:00 PM 35.6 °F 26.2 °F 21.2 °F 56% 29.92 in 6.2 mi SE 15.0 mph - N/A   Overcast
1:30 PM 35.6 °F 26.2 °F 23.0 °F 60% 29.92 in 6.2 mi SE 15.0 mph - N/A   Overcast
2:00 PM 35.6 °F 25.9 °F 23.0 °F 60% 29.89 in 6.2 mi SE 16.1 mph - N/A   Overcast
2:30 PM 35.6 °F 25.9 °F 23.0 °F 60% 29.89 in 6.2 mi ESE 16.1 mph - N/A   Overcast
3:00 PM 35.6 °F 25.9 °F 23.0 °F 60% 29.89 in 6.2 mi ESE 16.1 mph - N/A   Overcast
3:30 PM 35.6 °F 25.9 °F 23.0 °F 60% 29.89 in 6.2 mi ESE 16.1 mph - N/A   Overcast
4:00 PM 35.6 °F 26.2 °F 23.0 °F 60% 29.89 in 6.2 mi ESE 15.0 mph - N/A   Overcast
4:30 PM 35.6 °F 25.9 °F 24.8 °F 65% 29.89 in 6.2 mi SE 16.1 mph - N/A   Overcast
5:00 PM 33.8 °F 23.9 °F 24.8 °F 70% 29.89 in 6.2 mi SE 15.0 mph - N/A   Overcast
5:30 PM 33.8 °F 23.9 °F 24.8 °F 70% 29.89 in 6.2 mi SE 15.0 mph - N/A   Overcast
6:00 PM 33.8 °F 23.5 °F 24.8 °F 70% 29.89 in 6.2 mi SE 16.1 mph - N/A   Overcast
6:30 PM 33.8 °F 23.5 °F 24.8 °F 70% 29.89 in 6.2 mi ESE 16.1 mph - N/A   Overcast
7:00 PM 34 °F - 24 °F 56% 29.96 in 7 mi SE 15.7 mph - -   Overcast
7:00 PM 33.8 °F 23.2 °F 24.8 °F 70% 29.89 in 6.2 mi SE 17.3 mph - N/A   Overcast
7:30 PM 33.8 °F 23.5 °F 24.8 °F 70% 29.89 in 6.2 mi ESE 16.1 mph - N/A   Overcast
8:00 PM 33.8 °F 23.5 °F 24.8 °F 70% 29.89 in 6.2 mi ESE 16.1 mph - N/A   Overcast
8:30 PM 33.8 °F 23.2 °F 24.8 °F 70% 29.89 in 6.2 mi ESE 17.3 mph - N/A   Overcast
9:00 PM 33.8 °F 23.5 °F 24.8 °F 70% 29.89 in 6.2 mi ESE 16.1 mph - N/A   Overcast
9:30 PM 33.8 °F 23.2 °F 24.8 °F 70% 29.89 in 6.2 mi ESE 17.3 mph - N/A   Overcast
10:00 PM 33.8 °F 22.8 °F 24.8 °F 70% 29.86 in 6.2 mi ESE 18.4 mph - N/A   Overcast
10:30 PM 33.8 °F 22.8 °F 24.8 °F 70% 29.86 in 6.2 mi ESE 18.4 mph - N/A   Overcast
11:00 PM 33.8 °F 23.5 °F 24.8 °F 70% 29.86 in 6.2 mi SE 16.1 mph - N/A   Overcast
11:30 PM 33.8 °F 24.3 °F 24.8 °F 70% 29.83 in 6.2 mi ESE 13.8 mph - N/A   Overcast